Starlink 33941

operational
NORAD ID: 63765 Int'l Des: 2025-089 Owner: SPXS Country: US Constellation: starlink
LEOCIRCULAR

Über Starlink 33941

Beschreibung wird geladen...

Live-Position

3D-Globus wird geladen...

Nächste Überflüge

Höhenverlauf

Altitude vs Time

uPlot chart will show altitude changes over time

Zweizeiliger Elementsatz

1 63765U 25089Q 25260.14015377 .00025746 00000-0 94190-3 0 9994
2 63765 42.9959 305.5024 0000517 302.7975 57.2827 15.27578351 22405
Epoch: 17. Sept. 2025 • Age: 25 hours

Aktueller Status

Höhe 495.2 km
Geschwindigkeit 7.62 km/s
Subsatellitenpunkt -41.35°S, 170.34°E
Startdatum 29. Apr. 2025
Alter 0.3 years
Typ internet

Technische Details

Klassifizierung Payload
Masse 575.00 kg
Trockenmasse 530.00 kg
Gesamtmasse 575.00 kg
Länge 0.30 m
Durchmesser 4.10 m
Spannweite 29.00 m
Form Box + pan
Hersteller SPXS
Bus-Typ Starlink V2MO
Phasenstatus In Orbit
Besitzer/Staat SPXS/US

Große Konstellationen

Loading constellations...